SCP
0 0 0 0 0 0 0 0 0 0 0 0 0 0 0 0 0 0 0 0 0 0 0 0 0 0 0 0 0 0 0 0 0 0 0 0 0 0
0 0 0 0 0 0 0 0 0 0 0 0 0 0 0 0 0 0 0 0 0 0 0 0 0 0 0 0 0 0 0 0 0 0 0 0 0 0
0 0 0 0 0 0 0 0 0 0 0 0 0 0 0 0 0 0 0 0 0 0 0 0 0 0 0 0 0 0 0 0 0 0 0 0 0 0
0 0 0 0 0 0 0 0 0 0 0 0 0 0 0 0 0 0 0 0 0 0 0 0 0 0 0 0 0 0 0 0 0 0 0 0 0 0
0 0 0 0 0 0 0 0 0 0 0 0 0 0 0 0 0 0 0 0 0 0 0 0 0 0 0 0 0 0 0 0 0 0 0 0 0 0
0 0 0 0 0 0 0 0 0 0 0 0 0 0 0 0 0 0 0 0 0 0 0 0 0 0 0 0 0 0 0 0 0 0 0 0 0 0
0 0 0 0 0 0 0 0 0 0 0 0 0 0 0 0 0 0 0 0 0 0 0 0 0 0 0 0 0 0 0 0 0 0 0 0 0 0
0 0 0 0 0 0 0 0 0 0 0 0 0 0 0 0 0 0 0 0 0 0 0 0 0 0 0 0 0 0 0 0 0 0 0 0 0 0
0 0 0 0 0 0 0 0 0 0 0 0 0 0 0 0 0 0 0 0 0 0 0 0 0 0 0 0 0 0 0 0 0 0 0 0 0 0
0 0 0 0 0 0 0 0 0 0 0 0 0 0 0 0 0 0 0 0 0 0 0 0 0 0 0 0 0 0 0 0 0 0 0 0 0 0
0 0 0 0 0 0 0 0 0 0 0 0 0 0 0 0 0 0 0 0 0 0 0 0 0 0 0 0 0 0 0 0 0 0 0 0 0 0
0 0 0 0 0 0 0 0 0 0 0 0 0 0 0 0 0 0 0 0 0 0 0 0 0 0 0 0 0 0 0 0 0 0 0 0 0 0
0 0 0 0 0 0 0 0 0 0 0 0 0 0 0 0 0 0 0 0 0 0 0 0 0 0 0 0 0 0 0 0 0 0 0 0 0 0
0 0 0 0 0 0 0 0 0 0 0 0 0 0 0 0 0 0 0 0 0 0 0 0 0 0 0 0 0 0 0 0 0 0 0 0 0 0
0 0 0 0 0 0 0 0 0 0 0 0 0 0 0 0 0 0 0 0 0 0 0 0 0 0 0 0 0 0 0 0 0 0 0 0 0 0
0 0 0 0 0 0 0 0 0 0 0 0 0 0 0 0 0 0 0 0 0 0 0 0 0 0 0 0 0 0 0 0 0 0 0 0 0 0
0 0 0 0 0 0 0 0 0 0 0 0 0 0 0 0 0 0 0 0 0 0 0 0 0 0 0 0 0 0 0 0 0 0 0 0 0 0
0 0 0 0 0 0 0 0 0 0 0 0 0 0 0 0 0 0 0 0 0 0 0 0 0 0 0 0 0 0 0 0 0 0 0 0 0 0
0 0 0 0 0 0 0 0 0 0 0 0 0 0 0 0 0 0 0 0 0 0 0 0 0 0 0 0 0 0 0 0 0 0 0 0 0 0
0 0 0 0 0 0 0 0 0 0 0 0 0 0 0 0 0 0 0 0 0 0 0 0 0 0 0 0 0 0 0 0 0 0 0 0 0 0
0 0 0 0 0 0 0 0 0 0 0 0 0 0 0 0 0 0 0 0 0 0 0 0 0 0 0 0 0 0 0 0 0 0 0 0 0 0
0 0 0 0 0 0 0 0 0 0 0 0 0 0 0 0 0 0 0 0 0 0 0 0 0 0 0 0 0 0 0 0 0 0 0 0 0 0
0 0 0 0 0 0 0 0 0 0 0 0 0 0 0 0 0 0 0 0 0 0 0 0 0 0 0 0 0 0 0 0 0 0 0 0 0 0
Wind_Speed
7 7 7 5 5 5 5 5 6 6 5 4 4 4 3 3 3 5 5 6 8 8 8 8 8 8 7 7 7 7 6 7 7 6 6 6 7 7
5 6 6 5 4 5 5 5 5 6 5 3 3 3 4 4 4 5 4 5 7 8 8 8 8 8 8 8 7 7 7 7 7 7 7 7 7 7
6 6 6 6 5 5 5 5 6 5 6 5 3 3 4 5 3 4 4 4 4 8 9 8 8 7 7 7 7 7 8 8 8 8 8 8 8 8
7 6 6 5 6 5 5 6 5 5 6 6 4 4 5 5 5 5 4 4 3 7 8 8 7 7 7 7 7 7 7 7 7 8 8 8 9 9
6 6 6 6 6 5 5 5 5 4 4 5 4 3 3 4 4 4 4 3 3 5 7 7 7 7 7 7 7 7 7 7 7 7 7 7 8 8
5 5 5 5 6 5 5 5 4 4 4 5 4 4 3 3 3 4 3 3 3 3 3 4 6 7 8 8 8 8 8 7 7 7 7 6 7 7
4 4 4 2 3 3 4 4 4 5 5 5 4 4 4 4 4 4 4 3 3 3 3 4 5 5 6 8 9 9 8 8 8 8 7 7 7 7
4 3 3 2 2 3 4 4 5 6 6 5 5 5 5 4 3 4 4 4 3 4 4 4 4 4 4 4 7 9 9 9 9 9 9 9 8 8
3 2 3 1 2 3 3 4 4 3 5 5 5 5 4 4 4 5 5 5 4 3 4 4 4 4 4 4 9 9 9 9 10 10 10 10 9 9
2 2 2 2 2 3 3 3 2 1 2 3 3 3 3 2 4 4 4 3 2 3 4 3 3 3 3 4 8 9 9 9 10 11 11 10 10 10
1 1 2 2 2 3 3 3 3 1 1 1 1 1 0 1 2 3 4 4 4 4 4 4 4 4 3 4 6 10 10 10 10 11 11 11 10 10
1 1 1 1 1 2 4 3 3 2 1 1 1 2 3 4 4 5 4 4 3 3 5 4 4 4 4 3 4 6 7 9 11 11 11 11 10 8
2 1 1 2 0 2 4 3 2 3 3 3 2 2 2 2 3 3 3 3 3 3 4 5 4 4 3 3 4 5 6 6 8 9 10 12 11 8
2 1 2 2 1 2 2 1 2 4 3 3 2 2 1 1 1 2 2 2 2 2 2 4 3 4 4 4 4 5 5 5 6 6 7 11 11 10
1 3 2 1 2 3 2 3 4 3 2 2 2 1 1 0 1 2 2 2 1 1 2 3 4 4 4 4 4 5 5 5 5 6 6 7 7 7
1 2 4 3 2 0 2 3 2 1 2 2 1 0 1 1 2 2 2 3 3 2 2 2 2 3 4 4 4 5 5 5 6 6 6 6 6 7
2 2 1 1 1 1 1 1 1 1 1 1 1 1 1 2 1 1 2 2 2 2 3 3 3 2 2 3 4 4 5 5 5 5 6 6 6 7
3 1 1 1 1 1 1 1 1 0 1 1 1 1 1 1 1 2 2 2 2 2 3 3 4 4 4 4 3 4 4 5 5 6 5 6 6 6
2 1 1 1 1 1 1 1 1 0 1 1 1 1 1 1 1 2 2 2 2 2 2 3 4 4 5 5 6 5 4 4 4 5 6 6 6 6
1 1 1 1 1 2 1 1 1 1 1 1 1 2 1 2 2 2 2 2 2 3 3 3 4 4 4 3 2 4 8 6 5 6 6 5 4 4
0 1 1 1 1 1 1 1 2 2 1 2 1 2 2 2 2 2 2 2 3 4 4 4 2 3 3 2 3 3 5 8 5 4 5 5 5 6
0 1 1 1 1 1 1 1 2 2 2 2 1 2 2 2 2 3 3 3 4 4 4 3 3 4 4 4 5 4 4 6 7 7 6 5 5 5
1 1 1 1 1 1 1 2 2 2 2 2 2 2 2 2 3 3 3 4 4 4 4 4 3 4 5 5 5 4 5 6 6 7 7 9 9 7
Wind_Direction
241 237 243 247 245 246 245 240 249 260 255 231 227 215 219 228 190 218 225 189 194 203 205 201 195 191 190 191 191 195 198 194 189 187 189 188 184 182
239 244 246 247 249 247 246 244 242 251 261 258 249 237 230 230 197 221 226 179 190 190 188 188 188 189 190 189 188 190 187 184 182 180 179 178 178 180
238 237 243 249 246 251 249 244 242 241 250 258 251 236 228 234 219 226 223 220 195 177 177 178 180 183 184 186 188 185 180 178 178 178 178 178 180 181
242 244 247 245 240 247 252 253 250 248 248 254 253 248 241 228 220 224 227 219 210 162 169 174 176 179 181 180 178 175 174 175 177 177 178 180 182 180
250 248 251 251 249 250 250 252 252 249 248 251 255 253 245 222 211 217 222 220 215 170 165 172 177 178 179 178 174 168 168 170 171 172 176 180 178 177
253 258 261 257 257 257 251 248 251 254 249 248 246 241 234 215 207 211 215 207 215 203 180 175 173 178 180 176 173 169 168 171 171 170 172 174 172 169
255 256 259 278 305 282 276 268 259 253 250 248 245 237 229 210 213 213 213 205 219 209 196 195 187 187 181 181 180 175 172 171 170 168 166 162 158 157
260 261 258 241 230 227 249 257 262 259 261 256 253 249 241 232 220 214 211 208 220 198 201 210 193 188 182 175 162 168 173 173 170 167 165 160 158 157
275 286 284 289 261 250 223 219 234 243 252 260 259 258 251 235 224 223 218 225 229 186 195 207 190 196 185 157 154 164 172 177 174 170 167 165 162 159
266 262 273 294 324 317 283 265 265 257 258 255 267 268 265 244 231 232 225 224 214 181 194 206 191 195 184 166 161 171 175 176 177 175 172 169 166 162
254 281 285 282 34 332 279 269 270 262 109 84 343 288 195 202 225 220 207 210 217 197 197 209 191 186 183 185 172 179 184 185 183 181 179 177 175 175
218 211 66 357 23 307 268 261 260 271 279 213 192 192 197 184 200 225 225 226 225 208 189 205 191 183 185 190 185 182 190 191 191 188 186 184 181 194
262 260 90 103 246 283 279 276 289 285 258 246 235 216 202 199 203 212 233 238 237 230 180 194 195 196 197 180 189 192 190 185 188 190 190 188 190 204
288 305 67 99 229 256 272 320 297 265 243 236 236 223 213 215 205 202 219 246 277 269 188 193 201 203 204 194 186 186 189 189 189 189 186 180 194 206
341 52 71 181 226 207 211 256 250 243 241 236 235 238 247 204 199 189 180 185 196 205 180 209 213 205 222 213 186 182 186 189 192 190 186 185 191 194
200 153 180 205 239 281 188 212 237 291 288 270 271 233 193 197 210 196 195 192 190 176 167 201 234 222 222 212 194 183 184 182 184 191 191 195 198 204
258 212 193 184 203 201 206 208 214 200 236 274 262 222 208 204 210 202 214 209 206 193 183 186 191 204 229 231 209 198 194 192 188 185 195 205 204 206
260 226 213 240 251 253 235 207 206 228 258 248 242 248 251 230 207 208 217 224 209 204 198 186 184 187 196 204 234 221 206 201 189 183 199 210 210 206
246 304 306 304 306 305 311 302 293 350 313 275 265 261 260 252 240 224 222 227 224 215 208 201 204 213 220 213 187 211 223 205 195 193 204 216 216 209
287 321 312 323 317 320 318 310 304 252 238 261 262 263 262 257 253 249 233 236 233 224 214 211 219 228 243 250 184 178 202 211 207 206 209 215 216 189
36 356 338 327 319 311 307 303 296 287 289 280 273 279 268 264 266 258 242 221 250 239 231 224 215 235 247 237 225 207 187 194 216 226 218 218 219 218
27 350 338 326 314 305 298 287 273 273 269 264 274 276 273 269 263 258 253 235 236 243 246 237 189 211 228 234 236 221 205 187 196 214 234 242 242 235
15 351 341 320 311 306 303 290 280 279 279 279 276 269 266 264 264 258 253 251 247 240 239 236 222 220 230 232 235 232 217 208 208 206 212 210 220 234